GFSSE_sfc_temp_000.txt.gz
Temp
69 69 73 75 75 76 76 76 76 76 76 76 77 77 77 77 76 76 76 76 76 77 78 78 78 78 78 78 77 77 77 76 76 76 76 77 78 78 79 77 76 78 79
71 71 72 74 74 74 75 74 75 75 75 76 76 76 76 76 76 76 75 75 76 77 78 78 78 77 77 76 76 76 76 76 75 74 74 75 77 79 79 77 76 77 78
71 73 71 72 73 73 74 73 73 74 75 75 75 75 74 74 74 75 74 74 75 76 76 77 77 76 75 75 75 76 76 75 74 74 73 72 74 80 79 77 77 78 78
71 71 69 71 72 72 72 72 72 73 74 74 74 74 73 72 73 73 73 72 73 74 75 75 75 74 73 73 75 75 75 75 73 73 73 77 79 81 80 79 78 78 77
68 69 69 70 71 72 71 71 71 72 71 72 72 71 71 71 71 71 71 71 71 72 72 73 73 72 71 72 73 73 73 73 73 72 73 75 74 80 80 79 77 76 75
67 67 68 70 71 71 70 71 71 71 70 71 70 70 70 70 70 70 70 70 70 70 71 71 70 70 70 70 70 71 70 69 69 71 72 74 75 79 79 78 76 75 74
64 63 64 68 69 69 69 69 69 69 69 69 68 68 68 68 68 68 68 68 69 69 69 70 69 69 69 69 69 69 68 67 68 69 71 72 74 79 79 78 76 75 75
63 62 62 64 66 67 67 67 67 67 67 66 66 66 66 65 66 66 66 66 67 67 67 67 67 67 67 68 68 68 66 65 66 67 70 71 74 78 79 78 76 76 75
62 61 59 59 61 63 64 65 65 65 65 64 63 63 63 64 64 63 63 64 65 65 65 66 66 66 66 66 66 66 65 64 60 65 70 71 73 79 79 78 76 76 75
61 60 59 57 58 56 55 61 62 63 62 62 61 61 61 63 64 61 59 61 63 63 64 65 65 65 65 66 67 66 64 63 60 64 67 70 73 76 77 78 76 75 75
61 60 59 57 58 57 55 57 59 60 60 60 59 60 59 55 55 57 59 61 62 63 65 65 65 65 65 63 64 64 64 59 61 62 63 68 72 74 75 75 75 75 75
56 57 57 57 57 57 64 53 53 55 53 54 54 55 54 54 54 57 57 60 61 61 62 63 63 62 59 55 54 59 56 58 57 58 61 67 71 73 73 73 73 74 74
57 57 58 57 56 55 55 53 52 51 51 51 52 52 53 53 51 50 49 49 49 55 51 53 52 52 52 52 53 53 55 55 54 56 60 64 68 70 72 72 72 72 73
58 58 57 57 56 55 52 52 52 51 51 49 50 52 50 48 48 48 47 48 47 47 47 47 47 50 50 52 53 53 53 53 53 55 55 61 65 67 69 70 71 71 72
59 58 57 56 55 55 53 52 52 49 50 50 49 50 49 47 46 47 46 46 46 46 45 45 46 47 48 50 51 52 52 52 53 55 53 58 62 65 67 68 69 70 71
61 58 57 56 55 55 52 52 51 51 50 50 48 48 49 47 45 46 45 46 45 45 45 44 45 45 46 48 49 51 51 51 52 53 55 54 60 63 65 67 68 69 70
62 58 57 55 55 53 53 52 51 50 51 48 47 48 47 47 46 45 44 43 44 44 44 44 45 45 44 47 46 49 49 50 52 53 54 54 54 59 62 65 67 68 68
59 58 56 60 55 52 52 51 51 49 48 47 46 46 47 47 46 44 43 43 43 43 42 42 42 42 42 42 43 45 46 48 51 52 53 53 53 55 57 62 63 64 66
58 57 55 54 52 51 51 50 48 48 46 46 45 45 46 46 46 44 42 42 42 41 40 41 41 40 39 40 43 45 46 46 47 52 51 52 52 53 53 57 60 60 63
58 56 54 53 51 50 49 48 46 45 45 44 43 44 45 45 45 42 41 41 41 40 39 40 39 39 39 40 45 45 44 47 48 47 47 53 51 53 52 53 52 53 59
56 55 53 51 50 51 48 44 42 43 42 42 43 45 44 45 44 42 40 40 40 38 38 39 39 38 37 39 38 38 42 45 46 46 46 47 50 52 52 52 51 52 54
55 54 53 52 51 51 49 46 44 44 42 42 43 43 44 43 42 41 39 38 38 36 37 37 37 36 36 38 35 35 32 38 42 46 48 46 47 49 50 52 51 53 52
54 54 53 52 52 51 48 46 43 42 41 40 40 39 41 41 40 40 39 38 37 37 35 36 35 35 33 35 37 35 30 30 36 41 44 46 45 45 46 50 51 52 53
53 53 53 52 51 51 48 45 43 40 38 39 41 39 39 40 40 40 39 38 37 36 35 35 38 35 34 31 34 39 36 34 30 31 38 41 44 45 44 47 49 48 50
52 52 52 51 51 50 48 45 42 38 40 42 40 37 36 37 38 38 38 37 35 34 35 35 34 34 33 32 31 31 32 33 34 31 30 34 40 43 45 45 46 47 49
50 49 50 50 50 49 46 43 42 41 39 39 35 35 34 35 35 36 37 35 34 34 34 34 34 33 32 32 32 31 31 30 30 30 29 31 32 37 41 42 43 44 46

GFSSE_sfc_temp_003.txt.gz
Temp
62 66 74 76 77 77 77 76 76 76 77 77 77 77 77 77 76 76 76 76 77 78 78 78 78 78 77 77 76 76 76 76 75 75 75 76 78 79 78 77 75 76 78
65 69 72 75 75 76 75 76 76 76 77 77 76 76 76 76 76 76 76 76 76 77 78 78 77 76 76 75 75 76 76 75 74 74 74 75 75 78 79 77 76 76 78
66 68 69 73 74 75 75 76 76 76 77 76 76 75 76 76 76 75 75 75 75 76 76 76 75 75 74 74 75 75 75 75 74 73 73 72 73 79 79 77 76 77 78
67 67 67 71 73 73 73 73 74 76 75 75 74 74 73 73 73 73 72 72 73 73 74 74 74 73 72 73 74 74 74 73 72 72 70 73 75 80 80 78 78 77 76
64 66 68 71 72 72 72 72 73 72 73 73 72 72 72 72 72 71 71 71 71 72 73 73 72 71 71 71 72 72 73 71 70 71 70 70 71 79 80 78 76 75 74
63 64 68 71 72 72 72 72 72 71 72 71 71 71 71 70 70 70 70 70 70 70 71 71 70 70 70 70 70 71 70 69 69 67 68 71 72 77 80 78 76 75 74
59 61 64 70 71 71 71 71 71 71 71 70 69 69 69 68 68 68 69 69 69 69 69 69 69 69 69 69 69 69 68 67 64 64 66 68 70 76 80 78 76 75 75
58 59 61 66 68 69 69 70 69 69 69 68 68 67 67 67 67 66 67 67 67 67 68 68 67 67 68 68 68 68 67 65 63 60 64 66 70 76 79 78 76 75 75
59 57 56 58 62 65 67 67 68 67 67 66 66 66 65 65 64 63 63 65 66 66 67 67 67 67 68 68 68 67 65 65 57 58 64 66 70 76 78 78 77 76 75
57 56 54 54 55 54 56 63 64 65 64 64 64 63 63 64 62 61 60 64 65 66 67 67 66 66 65 65 65 64 63 62 57 58 60 64 70 74 76 76 75 75 75
57 56 54 53 53 52 53 57 60 62 62 62 61 61 58 52 53 55 60 63 63 64 64 65 64 63 62 60 61 62 60 56 56 57 58 65 69 73 74 74 74 74 74
53 54 55 54 53 52 59 52 51 54 51 51 52 52 51 51 52 54 56 59 60 60 61 61 61 59 56 51 51 56 52 53 53 54 58 64 67 70 71 72 72 73 73
55 54 54 55 53 52 53 49 47 48 47 48 49 50 50 50 48 47 46 47 47 51 47 49 48 49 49 49 49 50 51 51 49 53 56 62 65 67 69 70 71 72 72
53 57 54 54 54 51 50 50 48 48 46 46 47 49 47 45 45 45 44 44 44 44 44 44 44 46 47 49 49 49 49 49 49 51 52 58 62 65 67 69 70 70 71
55 55 55 53 53 53 50 49 48 47 46 46 46 48 46 45 44 44 44 43 43 43 43 43 43 44 45 46 48 48 49 49 50 50 49 55 59 63 65 67 68 69 70
58 55 55 55 54 52 50 48 48 47 47 45 44 45 46 44 43 43 43 43 42 42 42 42 42 42 43 44 46 47 48 48 49 50 51 50 57 60 63 65 67 68 69
58 56 54 54 53 52 50 49 48 47 47 44 44 45 45 45 44 42 41 41 41 41 42 42 42 42 41 43 42 45 46 47 48 49 50 50 50 56 59 63 64 66 66
55 54 55 58 54 51 50 48 49 46 44 43 43 43 45 45 44 41 40 40 40 40 40 40 40 40 39 39 39 42 42 44 46 47 48 49 49 52 55 60 62 64 65
58 55 53 54 51 50 47 47 45 45 43 43 42 41 43 44 43 41 40 39 40 39 39 40 38 38 37 37 40 42 42 43 43 47 46 48 48 50 49 55 58 59 62
58 55 54 53 50 49 48 44 43 42 41 41 40 41 42 42 42 40 39 39 39 38 38 38 37 37 37 37 42 42 41 43 42 41 43 48 47 49 49 50 49 50 57
54 52 51 50 50 50 47 44 42 42 39 39 40 41 41 41 41 39 38 39 38 37 37 39 37 37 35 36 35 36 37 41 41 42 43 43 44 47 48 49 48 49 51
52 52 51 51 50 51 49 48 42 42 38 39 40 40 41 40 40 39 38 37 37 36 37 37 36 34 34 35 33 32 31 36 39 46 44 43 45 44 46 49 48 49 48
51 49 50 50 50 50 48 45 40 39 38 37 37 39 39 39 38 39 37 36 36 35 34 35 34 34 32 33 35 33 30 29 34 38 43 42 42 44 45 45 47 49 51
51 51 51 50 49 49 46 46 42 44 40 42 43 40 38 38 37 37 37 36 35 34 34 34 36 33 33 31 32 37 34 32 29 28 35 39 43 41 41 44 46 45 47
50 50 50 48 48 48 46 47 43 42 43 38 38 37 36 35 36 36 36 35 34 33 34 34 34 33 32 31 31 31 31 31 32 29 28 30 37 39 40 41 42 43 46
48 49 48 47 47 47 46 45 44 42 37 37 37 36 36 35 34 34 35 33 33 33 33 33 33 32 31 31 31 30 30 29 29 28 27 30 30 33 37 39 39 40 42

GFSSE_sfc_temp_006.txt.gz
Temp
62 67 74 76 77 77 77 76 76 76 77 77 77 77 77 76 76 76 76 76 77 78 78 78 77 77 76 76 76 76 76 75 75 75 75 76 77 78 78 76 75 75 77
64 68 73 75 76 76 76 76 76 76 77 77 77 76 76 76 76 76 75 75 76 77 77 77 76 75 75 75 75 75 75 74 74 73 74 74 75 77 79 76 75 75 77
65 68 70 73 75 75 75 75 75 76 76 76 75 76 76 75 75 74 73 74 74 75 76 75 74 73 73 74 74 74 74 74 73 73 73 70 72 79 79 77 76 77 77
65 66 67 72 74 74 74 74 75 76 76 77 75 74 74 73 73 72 72 72 73 74 74 73 73 72 71 72 72 73 73 72 71 70 68 70 73 78 80 78 77 76 75
63 64 66 71 73 73 73 73 75 74 73 73 73 73 73 72 72 71 71 71 71 72 72 72 71 71 70 71 71 71 71 70 69 68 67 67 68 76 79 77 76 75 74
61 63 68 71 73 72 72 73 73 73 73 72 72 72 71 71 70 70 70 70 70 70 71 70 70 69 69 69 69 70 69 69 67 62 64 67 68 75 78 77 75 74 73
59 61 64 70 71 72 72 72 72 72 71 71 71 70 70 69 69 69 69 69 69 69 69 69 68 68 68 69 69 69 68 66 61 58 60 63 66 73 76 78 76 75 75
58 59 62 67 69 70 71 71 71 71 70 70 69 69 68 68 67 67 68 67 68 68 68 68 68 68 68 68 67 66 65 64 59 56 58 61 68 73 76 77 76 75 75
57 57 57 59 63 67 68 69 69 70 69 68 68 68 67 66 65 65 66 66 67 68 68 67 67 66 66 66 65 64 63 62 53 56 61 60 68 73 75 75 75 75 75
54 55 54 55 56 56 58 65 66 67 67 67 66 65 64 63 63 62 62 65 67 67 66 66 65 64 63 63 63 62 61 59 53 54 56 60 67 71 73 73 74 73 73
54 54 52 52 53 53 54 58 62 64 64 64 62 62 57 51 52 54 61 63 64 64 64 64 63 61 59 59 60 60 58 52 52 52 54 63 66 69 71 71 72 72 73
52 52 53 52 51 50 57 53 52 54 52 51 51 51 50 49 49 53 56 60 59 60 61 61 60 57 53 48 48 53 49 50 49 50 53 62 64 67 68 69 70 71 71
56 54 53 53 51 50 53 48 47 47 47 47 48 48 48 49 47 46 45 45 45 50 45 47 46 46 47 46 47 47 48 47 46 48 52 59 62 65 67 68 69 70 70
52 54 54 53 52 49 48 48 47 47 45 45 46 47 45 44 44 43 43 43 42 42 42 42 42 45 45 46 46 46 46 46 45 47 48 55 59 63 65 67 68 68 69
52 54 53 53 53 52 49 47 46 45 46 45 45 46 45 43 42 42 42 41 41 42 41 41 42 43 43 44 45 45 45 45 46 46 45 53 57 60 63 65 66 68 68
56 54 54 53 53 52 49 48 48 46 45 44 43 44 45 43 42 42 41 41 40 41 40 41 41 41 41 42 43 44 44 44 45 45 46 46 55 58 60 63 65 66 67
56 56 53 54 52 52 51 49 47 46 46 44 43 43 44 43 42 41 40 39 40 40 41 40 40 40 40 42 41 42 43 43 44 45 45 46 47 53 57 61 63 64 65
56 54 54 57 52 52 52 49 48 46 45 43 42 42 43 43 42 40 39 39 39 39 39 39 38 38 38 38 38 39 40 41 43 43 44 45 45 47 51 57 61 62 63
57 55 53 54 52 51 49 49 46 44 44 43 41 40 42 42 42 39 38 38 39 38 38 39 37 37 36 37 39 40 39 39 40 44 43 44 45 46 46 52 56 56 60
57 55 55 54 52 50 48 43 41 42 40 42 40 40 41 40 41 38 37 38 38 37 36 37 37 36 36 36 40 40 38 38 39 39 41 45 43 45 46 47 46 48 56
54 53 52 51 50 50 47 44 43 44 41 38 39 41 40 40 39 38 37 37 37 36 36 37 36 35 34 35 35 35 36 38 39 40 39 40 43 44 45 45 44 45 47
53 52 51 51 49 51 51 50 46 44 38 42 40 41 41 39 38 38 36 36 36 35 35 35 35 33 33 34 32 31 31 35 38 41 39 41 40 41 42 45 45 45 45
49 49 50 51 50 51 50 45 39 38 37 36 37 38 38 38 37 38 36 35 34 34 33 34 33 34 32 32 33 33 31 30 30 36 38 38 39 39 39 41 43 44 44
49 49 50 50 50 50 48 45 42 46 43 42 42 38 36 37 37 36 36 35 34 33 33 33 34 32 32 31 32 35 32 31 29 28 33 36 36 38 38 37 39 40 43
46 47 49 48 49 48 46 47 44 44 45 37 35 35 36 34 36 35 35 34 33 32 33 33 32 32 32 31 30 30 30 29 29 28 27 30 35 36 37 36 36 38 40
43 45 46 46 46 44 45 45 44 44 38 37 36 37 36 35 34 34 34 32 32 32 32 32 32 31 31 30 30 30 30 28 28 27 25 27 28 32 35 36 35 35 37

GFSSE_sfc_temp_009.txt.gz
Temp
62 66 74 76 77 77 77 76 76 76 76 77 77 77 76 76 76 76 76 76 77 77 78 77 76 76 76 76 76 76 76 75 74 75 75 76 77 78 78 76 75 74 77
64 67 72 75 77 77 76 76 76 76 76 77 77 77 76 76 76 75 75 75 76 77 77 76 75 74 74 74 74 75 75 74 73 73 73 73 75 78 78 76 75 75 77
66 67 70 74 75 76 76 75 75 76 76 76 76 76 76 76 76 75 74 74 75 75 75 74 73 72 72 73 73 73 73 72 71 71 71 68 69 77 78 76 76 77 77
65 66 67 72 74 75 75 75 75 76 76 76 75 74 74 74 73 73 73 73 73 74 74 73 72 71 71 71 71 71 71 70 69 69 66 68 69 75 79 78 77 76 75
63 64 66 71 74 74 74 75 75 75 76 74 75 74 73 73 73 71 71 71 72 72 72 71 71 70 70 70 70 70 70 69 67 64 63 64 65 73 77 77 75 74 73
61 62 67 71 73 74 73 74 75 75 76 75 74 73 72 71 71 70 70 70 71 71 70 70 69 69 69 69 69 69 68 67 64 58 59 62 64 73 76 76 75 74 73
59 61 64 70 73 73 73 74 74 74 74 73 72 72 71 70 70 70 69 69 69 69 69 69 69 69 69 68 68 67 66 64 57 56 58 59 62 73 76 76 76 75 74
58 59 62 67 69 71 72 73 73 73 72 71 71 70 70 69 69 69 69 69 69 69 69 68 68 67 67 67 66 65 64 62 56 54 56 57 68 73 75 75 74 74 74
57 58 59 61 64 67 69 70 70 71 71 70 70 69 68 67 67 67 67 68 68 68 68 67 66 66 66 65 64 63 62 61 50 53 58 56 68 71 73 73 73 73 73
54 55 55 57 59 59 60 66 67 68 68 68 68 66 65 64 64 65 64 67 67 67 66 65 64 64 63 63 62 61 59 57 50 51 52 58 67 70 71 71 71 72 72
53 53 53 54 54 55 56 59 63 65 66 65 63 62 59 51 53 54 60 65 66 65 65 63 62 61 58 59 59 58 56 49 49 49 50 62 65 68 69 70 70 71 71
51 52 52 51 52 52 57 54 54 55 54 53 52 52 49 48 48 52 56 61 62 62 62 61 59 57 51 46 46 51 47 47 47 47 49 60 63 66 68 68 69 70 70
55 53 52 52 50 50 51 49 48 48 48 48 48 48 47 48 47 45 45 44 44 49 45 47 46 45 45 45 45 45 45 45 43 46 50 57 61 64 66 67 68 69 69
51 54 52 51 51 48 47 48 47 47 45 44 45 46 45 43 43 43 42 42 42 41 41 41 41 43 43 45 45 45 44 44 43 45 46 54 58 62 64 66 67 68 68
52 54 52 52 51 51 48 46 45 45 47 45 44 45 44 43 42 41 41 40 40 40 41 40 41 42 42 43 44 44 43 43 44 44 43 52 56 60 62 65 66 67 67
55 54 53 52 52 51 50 48 48 47 45 44 43 44 44 43 41 41 40 40 39 40 40 40 40 40 40 41 42 43 43 43 43 43 43 43 54 56 60 63 65 66 66
56 55 52 53 52 51 51 49 48 47 46 44 44 43 43 43 41 40 39 38 39 39 39 39 39 39 39 41 41 41 42 42 42 42 43 43 44 52 56 60 63 64 65
56 54 54 56 53 52 51 49 49 46 46 45 43 42 42 42 41 39 38 38 38 38 38 38 38 38 38 38 38 39 39 40 41 42 42 43 43 46 49 57 59 61 63
57 55 52 54 52 52 51 50 47 45 45 44 41 41 41 42 41 40 38 37 37 37 37 38 36 37 36 37 39 39 38 38 39 42 42 43 43 43 44 52 53 54 59
55 55 55 53 53 52 50 46 42 43 41 41 42 41 41 42 40 39 37 37 37 36 36 36 36 35 35 35 40 39 36 37 38 39 39 43 42 42 43 44 43 45 53
51 52 53 51 51 50 46 44 44 45 42 40 40 42 41 40 39 38 36 36 35 35 35 36 35 35 34 34 35 36 36 37 37 38 38 38 40 41 41 41 41 41 42
53 52 51 51 50 51 50 51 46 48 39 41 39 39 40 39 38 37 37 35 35 34 35 35 35 33 32 32 33 32 32 36 37 38 37 39 37 38 40 42 40 41 40
47 49 50 51 49 51 50 45 37 37 36 35 35 38 39 38 37 37 36 35 35 34 34 34 34 34 32 31 32 34 32 32 30 34 36 36 36 36 36 37 39 40 40
50 47 49 49 48 50 48 46 43 45 43 43 44 41 38 37 37 36 36 35 34 33 33 32 34 33 32 31 31 34 31 31 29 30 32 33 34 36 34 34 36 37 38
44 44 46 47 47 48 47 47 45 46 46 38 36 35 36 34 36 35 35 33 33 32 32 33 32 32 31 31 31 30 30 29 29 28 27 29 32 33 34 34 34 34 37
40 42 44 44 45 45 46 46 45 46 40 38 36 37 36 36 34 35 34 33 32 32 32 32 31 32 31 31 30 30 30 28 27 27 25 25 26 30 33 33 33 33 34

GFSSE_sfc_temp_012.txt.gz
Temp
62 64 74 76 77 77 77 77 76 76 76 77 77 77 76 76 76 76 76 77 77 77 77 77 76 76 76 76 76 75 75 74 73 74 74 75 77 78 78 76 75 74 77
63 65 72 76 77 77 77 76 76 76 76 77 77 77 76 76 76 75 75 76 76 76 76 75 75 74 74 74 74 74 73 72 71 72 72 72 74 78 78 76 76 75 76
64 66 69 74 76 76 76 76 75 76 76 77 76 76 76 76 75 75 74 75 75 75 74 74 73 73 72 73 73 73 72 70 70 70 69 66 68 77 78 76 76 77 76
65 66 67 72 75 76 75 75 75 76 76 76 76 76 75 74 74 74 74 74 75 75 74 72 72 71 71 71 71 71 70 70 68 68 63 65 67 74 77 77 77 76 75
63 65 66 72 75 75 75 75 75 75 75 76 75 75 76 75 75 73 72 72 73 72 72 72 71 70 70 70 70 70 69 68 66 63 60 61 62 72 76 77 75 74 73
61 63 67 72 74 74 74 75 75 75 76 77 76 74 74 74 72 71 71 71 71 71 71 70 70 70 70 69 69 68 67 66 62 56 58 61 63 74 76 76 75 74 73
59 61 64 71 73 74 73 74 74 75 75 76 74 73 73 71 71 70 70 70 70 70 70 70 70 69 68 67 67 67 65 63 54 54 55 57 62 74 75 75 74 74 74
58 59 62 67 69 73 72 73 74 74 75 73 72 72 71 70 70 70 69 69 69 69 69 69 68 67 67 66 65 64 63 60 55 53 55 56 68 73 73 73 73 73 73
57 58 59 62 65 68 69 70 71 72 73 72 71 71 70 69 69 69 68 69 69 69 68 67 67 66 66 65 64 62 61 59 48 51 56 55 68 71 72 72 72 72 73
55 57 57 58 60 61 62 66 68 70 69 70 69 68 66 66 67 66 66 68 68 68 66 66 65 65 64 63 62 60 58 56 48 49 50 57 67 70 70 71 71 71 72
53 54 55 55 57 57 58 60 64 66 66 66 64 63 58 52 54 55 59 66 67 66 65 64 63 61 60 60 59 58 54 47 47 47 49 62 65 68 69 69 70 70 71
52 53 53 53 54 54 57 56 56 57 56 55 53 52 49 48 49 53 57 63 64 64 64 63 61 57 51 45 45 50 45 46 45 46 48 60 63 66 67 68 69 69 70
55 53 53 52 52 52 53 51 51 51 50 50 49 48 47 47 47 46 46 45 45 50 45 47 45 44 44 44 44 44 44 43 42 44 49 57 61 65 66 67 68 69 69
51 54 53 51 51 50 50 51 49 50 47 47 46 46 44 43 43 43 42 41 41 41 41 41 41 42 43 44 44 44 43 42 42 43 45 55 59 63 65 67 68 68 68
51 53 52 51 52 51 49 48 48 49 48 46 45 45 44 43 41 41 41 40 40 40 40 40 40 41 42 43 43 43 42 42 42 42 41 52 57 61 64 66 67 67 68
54 53 53 52 53 52 51 49 50 49 46 45 43 45 43 42 41 40 40 39 39 39 39 39 40 40 40 41 42 42 42 41 42 42 42 42 55 58 62 65 66 66 67
56 55 52 53 53 51 52 50 50 48 46 45 45 42 42 42 41 40 39 38 38 38 39 38 39 38 39 41 40 41 41 41 41 42 42 42 44 53 59 62 63 65 66
56 53 54 55 52 52 52 51 50 47 47 46 44 44 43 42 41 39 39 38 37 37 37 37 37 37 37 38 38 38 38 39 41 41 42 41 42 44 51 56 58 59 61
56 56 53 53 52 51 52 51 49 47 47 46 43 43 42 42 41 41 39 37 37 36 36 38 36 37 36 37 39 38 37 37 38 42 40 41 42 41 42 50 51 52 57
55 56 55 52 53 51 51 47 43 41 44 40 43 43 41 42 41 39 37 37 36 35 35 35 36 34 35 35 40 38 36 36 37 37 38 41 40 40 40 40 39 42 51
49 51 52 50 52 50 48 44 43 45 42 41 43 43 42 42 40 40 38 36 35 36 35 36 35 35 34 33 36 35 35 36 36 36 36 37 38 39 38 38 38 38 40
51 50 50 50 50 50 50 49 46 49 42 45 41 41 42 40 40 40 38 37 36 34 34 34 34 32 32 32 34 33 34 36 36 37 36 37 35 36 37 38 38 38 37
46 46 49 50 49 51 49 45 36 37 35 35 35 38 38 40 39 40 38 37 36 36 35 34 33 34 33 31 32 36 32 35 31 33 35 34 34 34 34 35 37 37 37
51 46 47 47 47 49 48 45 46 46 44 44 45 43 40 39 38 38 38 37 36 35 33 34 34 33 34 32 31 33 31 32 33 34 32 32 33 35 33 34 34 35 36
47 43 43 45 45 48 47 46 46 47 48 40 39 39 38 37 37 37 37 36 35 34 33 33 32 32 33 32 31 30 30 29 29 30 32 30 31 31 32 32 33 33 35
41 39 40 42 43 44 45 45 46 47 38 39 36 38 36 35 35 35 36 36 35 34 33 33 32 32 31 32 31 31 30 30 28 27 26 26 27 29 30 31 31 32 32

GFSSE_sfc_temp_015.txt.gz
Temp
69 72 74 77 78 77 77 77 77 76 76 77 77 77 77 76 76 76 77 77 77 77 78 77 77 77 76 76 75 75 73 73 73 73 74 75 78 78 77 76 76 80 77
70 71 73 76 77 77 77 77 76 76 76 77 77 77 77 76 76 76 76 76 76 76 76 75 75 75 75 74 74 74 72 71 71 71 71 73 75 78 78 76 76 78 77
69 70 74 75 76 76 76 76 76 76 77 77 77 77 76 76 76 75 75 75 75 76 75 74 73 73 73 73 72 72 71 70 70 69 70 75 77 77 77 76 76 77 76
70 70 72 73 75 76 76 75 75 76 76 77 77 76 76 76 76 75 74 75 76 75 74 73 73 72 72 71 71 71 70 69 69 68 72 73 75 76 77 77 76 76 75
69 70 71 72 75 76 75 75 75 75 76 76 76 76 76 77 76 74 73 73 74 73 73 72 71 71 71 71 70 70 69 68 66 69 70 73 74 77 77 76 75 75 73
67 69 70 72 75 75 75 75 75 75 76 76 76 77 75 74 74 72 72 72 72 72 72 71 71 71 70 69 69 68 67 66 65 68 69 70 74 76 76 75 75 74 73
66 68 70 71 73 74 74 75 75 75 75 77 76 75 73 73 72 71 71 71 71 71 71 71 70 69 68 68 67 67 65 63 65 66 66 68 74 75 75 74 74 73 74
65 65 67 68 70 73 73 74 74 74 75 76 75 73 72 72 71 71 71 70 70 70 70 69 69 68 67 66 66 64 62 60 63 63 64 67 71 73 73 73 73 73 73
64 64 65 68 69 69 70 71 72 73 73 74 73 72 71 70 70 70 70 70 70 70 69 68 68 67 66 65 64 62 61 59 62 62 65 67 68 71 72 72 72 72 73
62 63 64 65 67 68 71 66 68 70 71 71 69 69 67 67 68 68 67 69 69 69 68 67 66 66 65 64 62 60 58 57 60 60 63 66 68 70 71 71 71 71 72
58 60 61 62 64 65 66 65 65 67 67 67 66 64 63 64 65 65 63 67 68 67 66 65 65 63 61 60 59 57 55 58 59 59 61 63 66 69 69 69 70 70 71
58 59 60 61 62 62 62 64 66 65 66 65 64 62 60 60 60 61 61 64 65 65 65 64 62 58 55 56 57 55 57 56 57 57 60 61 65 67 68 69 69 69 70
61 60 59 59 60 60 61 61 62 62 62 61 60 58 57 56 58 58 58 58 58 56 58 58 55 55 54 55 55 55 54 55 56 56 57 60 64 67 68 68 69 69 69
57 60 59 58 57 58 59 60 60 60 59 58 57 55 54 53 54 54 55 54 54 53 52 52 52 52 52 52 53 53 53 54 55 55 55 57 62 65 68 68 69 69 69
56 58 57 57 58 58 56 58 58 58 57 57 55 54 54 53 52 52 52 51 51 51 51 51 51 51 51 51 52 52 51 52 52 54 54 55 60 65 67 68 68 68 69
58 58 58 57 58 58 57 57 58 58 57 55 54 54 52 53 52 51 50 50 50 50 50 50 51 51 50 50 50 50 50 51 51 52 54 56 58 62 65 66 67 68 69
59 60 57 57 58 57 57 56 57 56 54 54 53 51 51 51 51 50 49 48 49 48 48 48 48 48 50 50 49 49 50 50 51 51 52 53 55 59 61 64 65 65 65
59 57 58 58 56 57 57 57 57 55 54 55 53 52 50 50 50 49 49 48 47 47 48 48 48 48 49 50 49 48 49 49 49 50 51 52 52 53 55 56 58 60 62
59 59 56 56 56 56 57 57 56 54 54 54 52 51 50 49 49 49 48 47 46 46 47 47 46 48 48 48 48 47 47 48 49 50 49 49 50 50 50 52 52 54 57
58 59 58 55 57 55 56 55 53 51 53 52 51 50 49 50 48 48 47 46 45 45 45 45 46 44 47 47 47 45 46 47 47 48 48 49 48 48 49 48 48 51 54
54 54 55 53 54 54 53 50 48 48 50 48 50 50 49 50 48 47 47 45 44 44 45 45 44 44 43 44 45 44 44 45 46 46 47 47 46 46 47 47 47 47 50
56 53 52 53 53 53 54 53 54 53 51 50 50 48 49 48 47 47 46 45 44 43 43 43 43 42 43 42 47 46 43 45 46 46 46 45 44 45 45 45 45 45 46
54 52 51 52 52 53 53 52 43 44 43 44 44 44 45 46 45 47 45 45 43 44 43 43 43 43 43 41 41 48 42 46 43 43 43 44 44 45 44 44 44 44 45
52 51 49 50 50 51 52 49 49 50 47 47 49 47 46 45 45 46 45 44 43 43 43 42 43 44 43 42 40 40 41 45 46 42 42 42 42 43 43 43 43 43 44
47 45 46 47 48 50 49 49 49 49 51 48 49 45 44 43 44 43 43 43 43 42 42 42 41 41 43 43 42 39 39 40 40 45 44 41 41 41 42 42 42 42 42
45 42 43 44 44 46 47 47 48 48 45 45 44 43 42 41 41 41 42 42 43 42 41 41 42 41 42 42 42 41 41 42 41 41 41 40 41 39 40 41 41 41 41

GFSSE_sfc_temp_021.txt.gz
Temp
85 85 75 77 78 78 78 77 77 77 77 77 77 77 77 77 77 77 77 77 77 77 78 78 78 76 76 76 75 73 73 73 73 74 77 78 78 78 77 76 78 80 77
88 86 74 76 78 78 77 77 76 76 77 77 77 77 77 77 77 77 77 77 77 77 76 76 76 75 75 74 73 73 72 72 72 72 74 76 77 77 77 76 76 78 77
86 86 78 75 77 77 76 76 76 76 77 77 77 77 77 76 76 76 76 76 76 76 75 75 74 73 73 72 72 72 72 71 71 72 75 83 78 77 77 76 76 77 77
86 86 82 73 76 76 76 76 76 76 77 77 77 77 77 76 76 76 75 75 76 75 74 74 73 72 72 71 71 71 70 70 70 72 81 83 84 77 77 76 76 76 76
85 86 83 73 76 76 76 75 75 76 76 77 77 77 76 76 76 74 74 74 75 74 73 73 72 72 71 70 70 70 69 69 70 75 80 80 82 77 76 76 75 74 74
85 85 75 74 75 76 75 75 75 76 76 76 76 76 76 76 75 74 73 73 73 73 73 72 72 71 70 69 69 68 67 68 70 79 79 78 78 75 75 75 74 74 73
84 84 81 73 74 75 75 75 75 75 75 76 76 76 76 75 75 73 72 72 72 72 72 72 71 69 69 68 67 66 66 67 77 76 76 78 74 74 74 74 74 74 74
84 82 82 71 71 73 74 74 74 75 75 75 75 75 75 74 75 73 72 72 71 71 71 71 69 68 68 67 66 65 64 65 74 75 75 74 70 73 73 73 73 73 73
85 81 81 79 74 68 71 71 72 73 74 74 74 73 73 73 73 71 71 71 71 71 71 70 68 68 67 66 64 63 63 64 74 72 76 73 68 72 72 72 72 72 72
83 82 80 81 79 78 77 67 69 71 71 72 71 70 68 69 69 69 68 69 71 71 70 69 68 67 66 64 62 61 61 65 72 72 72 67 68 71 71 71 71 71 72
79 80 80 79 80 79 79 75 66 67 68 68 68 66 65 74 72 70 68 68 70 69 69 68 67 65 63 61 60 59 61 70 71 70 70 63 67 69 70 70 70 71 71
77 78 79 79 79 79 80 80 76 74 75 75 75 73 74 73 74 72 67 65 67 66 67 67 65 62 60 67 64 61 69 68 69 68 65 62 66 69 69 69 70 70 70
82 80 78 78 79 78 78 79 78 74 72 76 76 74 74 73 73 71 70 68 68 63 67 65 62 64 67 68 67 67 66 67 68 67 61 59 65 68 69 69 70 69 69
83 83 81 79 77 77 78 77 77 77 74 75 76 75 72 71 69 68 69 69 68 67 67 66 64 64 64 64 64 64 64 66 67 66 60 58 61 67 69 69 69 69 69
81 82 82 79 77 77 75 77 76 76 76 76 76 74 72 70 68 68 69 69 68 67 67 64 63 62 62 62 63 63 63 63 63 64 64 57 60 66 68 69 69 70 70
80 80 81 80 77 77 76 75 76 76 77 75 75 73 71 70 68 68 67 67 67 67 66 64 63 62 61 61 61 62 61 62 62 63 64 61 59 62 67 68 69 69 69
83 81 79 80 78 76 75 74 75 75 75 74 73 72 70 69 69 67 66 66 66 65 64 63 63 63 61 61 60 59 60 60 61 61 62 64 62 57 62 66 67 67 67
83 81 80 78 77 75 75 74 74 75 74 74 73 72 69 68 69 67 65 64 65 63 62 62 61 60 60 60 59 59 59 59 59 60 61 63 63 62 58 59 61 63 64
82 81 80 79 76 74 74 75 73 73 73 73 73 71 70 67 67 66 65 64 63 61 61 61 60 60 59 59 59 59 59 58 57 60 59 59 58 59 58 53 54 55 60
76 77 77 77 76 74 73 72 72 72 71 72 71 70 69 67 65 65 64 63 61 59 59 59 58 60 59 58 59 57 57 58 57 57 57 57 56 56 57 56 55 55 58
67 67 70 71 73 72 70 68 68 67 68 69 69 69 68 66 64 63 62 62 59 57 57 58 58 56 56 57 53 53 54 55 55 56 56 55 54 55 55 54 54 55 56
61 61 64 66 69 70 69 68 69 69 69 69 68 67 67 65 63 61 61 60 58 57 57 56 55 53 55 55 54 52 47 49 52 54 54 54 53 53 52 53 53 53 55
57 58 60 62 64 66 67 67 66 65 63 64 64 64 63 63 61 61 60 59 57 57 55 55 54 53 51 52 57 56 49 49 48 51 51 52 52 51 52 51 51 52 53
55 57 59 59 60 61 63 62 61 61 59 63 63 62 61 60 60 60 59 59 57 56 55 53 55 54 54 49 51 54 51 53 48 42 49 50 51 51 50 49 49 50 52
54 54 57 57 57 57 59 59 59 57 59 62 62 58 58 58 57 58 58 57 56 55 54 53 52 52 54 53 51 48 48 50 51 52 43 44 48 49 50 50 49 48 50
54 54 54 54 54 54 55 56 55 55 55 56 57 55 56 56 55 55 55 56 56 55 53 52 51 51 52 54 52 51 50 49 48 50 49 45 43 46 48 48 48 47 48

GFSSE_sfc_temp_024.txt.gz
Temp
75 74 75 77 78 78 77 77 77 77 77 77 77 77 77 77 77 77 77 77 77 78 78 78 79 78 77 75 74 74 73 73 74 75 77 78 78 78 77 76 76 77 77
79 75 74 77 78 77 77 77 76 76 77 77 77 77 77 77 77 77 77 76 77 77 77 77 76 76 75 74 73 73 73 72 72 73 75 76 77 77 77 76 76 76 77
78 77 75 75 77 77 76 76 76 76 77 78 77 77 77 77 77 76 76 76 76 76 76 75 75 74 73 72 72 72 72 72 72 72 73 74 73 77 77 76 76 77 77
80 77 76 73 76 76 76 76 75 76 77 77 77 77 76 76 76 76 75 75 75 75 75 74 73 73 72 72 71 71 71 71 71 72 71 77 78 77 77 76 76 76 76
78 78 78 73 75 76 76 75 75 76 76 77 77 77 77 76 75 74 74 75 75 74 74 73 73 72 71 71 70 70 70 70 71 71 72 71 72 76 76 76 75 74 73
77 79 74 74 75 76 75 75 75 75 76 76 77 77 76 76 74 74 74 74 74 73 73 73 72 71 70 69 69 68 68 70 70 68 69 71 71 76 75 75 74 73 73
75 76 72 73 74 75 75 75 75 75 75 76 76 76 76 75 74 73 73 73 73 73 72 72 71 70 69 68 67 67 67 68 66 66 67 66 68 74 74 74 74 74 74
75 75 73 70 71 73 74 74 74 75 75 75 75 75 75 75 75 73 72 72 72 72 72 71 69 69 68 67 66 65 65 66 67 65 64 63 70 73 73 73 73 73 73
75 73 72 71 70 68 71 71 72 73 73 74 74 74 73 73 73 72 71 71 71 71 71 70 69 68 67 66 65 64 64 66 61 63 67 61 69 72 72 72 72 72 72
73 72 71 70 70 70 69 67 69 70 71 72 71 70 69 69 70 70 68 70 71 71 70 69 68 67 66 64 63 62 62 63 61 62 59 60 69 71 71 71 71 71 72
71 71 71 70 70 70 70 69 66 67 68 68 68 66 64 65 65 64 65 68 70 70 69 68 67 66 64 62 61 61 62 58 59 59 56 63 67 70 70 70 70 71 71
67 68 69 69 69 70 74 69 68 68 67 67 66 64 64 64 63 65 62 65 67 67 68 68 66 64 60 53 53 59 55 58 57 56 54 62 67 69 69 69 70 70 70
70 70 70 69 69 68 70 67 68 68 69 67 68 67 67 64 62 60 57 58 57 60 58 60 57 53 54 55 55 55 56 56 53 54 57 60 64 68 69 70 70 69 69
70 69 69 70 68 68 67 66 66 67 66 69 68 66 67 65 59 58 56 56 56 54 54 53 51 52 54 56 55 55 55 53 52 53 53 58 62 67 69 70 70 70 70
69 69 69 69 68 68 66 66 66 65 67 68 69 66 64 62 58 57 56 56 55 54 54 52 51 52 52 54 54 54 54 53 54 53 50 57 61 66 69 70 70 70 70
70 69 70 68 69 68 67 66 66 65 65 67 68 64 63 62 58 56 55 55 55 54 53 52 50 50 50 51 52 53 53 52 53 54 53 52 60 63 67 69 69 70 69
70 69 69 68 67 66 66 65 65 64 65 63 63 63 62 61 58 56 54 54 54 54 53 51 51 50 49 51 50 51 51 52 52 53 53 53 53 58 62 67 68 69 68
68 69 68 71 67 65 65 64 64 63 63 62 62 62 62 61 59 56 54 53 53 52 51 49 48 47 47 47 46 47 48 50 51 52 52 53 52 53 55 58 61 64 65
62 64 64 65 65 64 64 63 63 63 61 61 61 60 60 60 59 56 53 53 53 50 49 50 47 47 46 46 48 46 47 46 48 53 51 51 50 50 48 55 56 56 61
58 60 61 63 63 63 61 60 59 59 60 60 60 60 62 59 58 55 53 52 51 48 47 47 47 47 46 46 52 49 46 46 46 45 47 50 48 49 47 48 47 49 58
55 56 57 57 58 59 57 55 55 55 57 57 58 61 61 58 57 54 52 51 49 49 49 48 46 46 45 45 42 42 43 45 46 45 45 45 46 48 46 46 45 46 49
51 53 54 56 56 57 56 56 55 55 54 56 57 58 61 59 57 54 51 50 48 46 46 47 46 43 43 46 41 39 36 40 42 45 44 45 44 44 45 47 46 47 46
48 50 52 52 53 55 54 55 54 53 51 51 52 53 54 58 56 56 52 50 48 47 47 46 46 47 40 43 45 43 37 36 37 40 42 42 43 42 42 44 45 46 45
47 49 50 51 51 54 52 51 50 48 48 49 51 51 51 53 53 54 53 50 48 46 45 44 47 48 43 44 41 46 42 41 37 33 39 40 42 43 41 40 42 44 44
47 46 46 48 49 49 48 48 47 46 47 48 48 47 48 49 50 50 49 49 47 46 44 43 43 42 45 43 45 38 38 39 40 36 32 34 38 40 40 40 40 40 43
45 45 46 46 47 47 47 46 45 44 44 44 44 43 44 46 46 47 48 46 47 45 43 42 42 42 42 43 43 40 39 39 37 38 35 33 34 36 39 39 40 39 40

GFSSE_sfc_temp_027.txt.gz
Temp
68 72 76 77 78 78 78 77 77 77 77 77 77 77 77 77 77 77 77 77 77 78 78 78 78 77 76 74 74 74 74 74 74 76 77 77 78 78 77 76 75 76 77
71 73 74 77 78 77 77 77 76 76 77 77 77 77 77 77 77 77 77 76 77 77 77 76 76 75 75 73 73 73 73 73 73 73 75 76 76 77 77 75 75 76 77
72 74 74 75 77 77 76 76 76 76 77 77 77 77 77 77 77 77 77 76 76 76 76 75 75 74 73 72 72 72 73 73 73 73 73 71 72 77 77 76 76 76 76
73 74 74 73 76 76 76 76 76 76 77 77 77 77 77 77 76 76 76 75 75 75 75 74 74 72 72 71 71 71 71 72 72 71 70 73 76 77 77 76 76 75 75
72 73 74 73 75 76 76 75 75 76 76 77 77 77 77 76 76 75 75 75 75 74 74 74 73 72 71 70 70 70 70 71 71 70 68 69 70 76 76 76 74 74 73
71 74 72 73 75 76 75 75 75 75 76 76 77 77 76 76 75 74 74 75 75 74 73 73 72 71 70 69 69 69 70 71 70 65 65 68 70 76 76 75 74 73 73
70 71 71 73 74 75 75 75 75 75 75 76 76 76 76 75 74 73 74 75 73 73 73 72 71 70 69 68 68 68 68 69 64 62 63 64 68 75 75 74 73 73 74
70 69 71 70 71 73 74 74 74 75 75 75 75 75 75 75 73 72 73 74 73 72 72 71 70 69 68 67 67 67 67 67 64 61 60 61 70 73 73 73 73 73 73
70 68 69 70 71 69 71 71 72 73 74 74 74 74 73 73 73 72 72 72 72 72 72 70 69 68 67 66 66 65 65 65 59 59 63 59 70 72 72 72 72 72 72
68 67 67 68 69 69 70 68 69 70 71 71 71 70 69 69 69 69 68 70 71 71 71 69 68 67 66 65 64 63 63 63 57 57 57 59 69 71 71 71 71 71 71
67 66 65 66 67 68 67 67 65 67 68 68 67 66 65 64 65 65 64 68 70 70 70 69 68 66 64 62 63 62 61 55 55 54 55 64 68 70 70 70 70 71 71
63 65 65 64 66 66 71 68 66 67 67 67 66 67 65 62 62 63 61 65 67 67 68 68 67 64 59 52 52 58 53 54 53 52 53 63 67 69 70 69 70 70 70
63 63 65 65 64 65 68 65 66 68 66 65 66 66 64 62 60 59 57 58 58 60 58 60 58 53 52 51 51 52 53 52 50 51 56 61 64 69 69 70 70 69 69
63 65 65 64 66 64 67 64 66 67 66 66 67 66 66 64 61 56 55 55 54 53 53 51 50 50 50 52 53 52 52 50 49 49 53 59 62 67 70 70 70 70 70
64 65 63 64 65 67 63 62 64 65 65 65 66 66 67 65 62 58 54 54 53 52 51 49 49 49 50 51 52 52 51 51 51 50 49 57 61 66 70 70 70 70 70
63 64 63 64 66 64 66 63 62 62 63 63 62 64 66 64 61 58 54 54 53 53 50 49 48 47 48 48 50 51 50 50 51 50 50 51 60 64 68 70 70 71 70
58 61 62 62 62 63 62 62 61 61 62 61 62 62 62 63 61 57 55 53 53 51 50 48 48 47 46 48 48 49 49 50 50 50 50 50 51 58 63 68 69 70 69
56 56 59 62 61 62 61 61 61 61 60 60 60 60 60 62 61 56 54 52 52 50 49 47 46 45 44 45 44 45 46 47 49 50 50 50 49 50 55 61 65 66 67
53 54 56 57 57 60 59 59 60 61 59 59 59 60 61 60 59 58 53 52 51 49 47 49 44 45 42 42 44 43 44 44 46 50 49 49 48 48 47 56 57 58 62
52 53 54 56 56 56 56 56 56 56 57 57 58 61 61 61 58 56 54 51 49 47 46 45 45 43 43 43 49 46 42 43 44 43 46 48 46 47 46 47 46 49 58
50 50 51 52 53 54 52 52 52 53 54 55 59 61 60 59 58 55 54 53 48 48 47 46 44 44 42 41 41 40 40 42 43 43 43 43 45 46 45 44 44 45 48
47 47 48 50 51 52 52 50 51 50 50 51 54 56 60 58 57 55 53 51 47 45 45 44 44 41 42 42 40 36 36 39 40 42 41 43 42 43 44 45 44 45 44
45 45 47 48 49 49 50 52 50 49 49 49 50 51 54 56 55 55 53 51 49 49 48 45 44 44 41 41 41 41 34 36 35 38 39 40 41 39 40 42 43 44 44
43 45 46 47 47 48 47 46 44 45 43 44 45 46 48 50 51 54 53 52 50 48 47 44 45 44 41 39 39 44 39 38 36 35 37 38 39 41 39 39 40 42 43
42 42 43 45 45 46 45 44 43 42 42 43 44 44 45 46 48 48 48 50 49 48 46 45 44 42 40 41 41 37 37 37 37 34 32 33 36 37 39 39 39 39 41
41 40 42 43 43 43 44 43 42 40 41 40 40 40 41 42 44 45 46 45 45 46 45 44 44 43 44 42 40 38 38 39 37 36 33 31 32 35 36 38 38 39 38

GFSSE_sfc_temp_030.txt.gz
Temp
67 71 75 77 78 78 78 78 77 76 77 77 77 77 77 77 77 77 77 77 77 78 78 78 77 76 75 74 74 74 74 74 75 77 77 77 78 78 77 75 75 75 77
69 72 74 76 78 78 77 77 76 76 77 77 77 77 77 77 77 77 76 76 76 77 77 76 76 75 73 73 73 73 73 73 73 73 74 76 76 77 76 75 75 75 76
70 73 74 75 77 77 76 76 76 76 77 77 77 77 77 77 77 77 76 76 76 76 76 75 75 73 72 72 72 73 73 73 73 72 73 70 71 77 76 75 75 76 76
71 73 73 73 76 76 76 75 76 76 77 77 77 77 77 77 77 77 76 76 75 75 75 74 73 72 72 72 72 72 72 72 71 72 69 71 74 76 76 76 75 75 75
70 72 73 73 75 76 75 75 75 76 76 77 77 77 77 77 76 76 75 75 75 74 74 74 73 72 71 70 70 70 71 72 70 69 67 68 69 75 76 76 74 74 73
68 71 71 73 75 76 75 75 75 76 76 76 77 77 76 76 75 74 74 74 76 74 74 73 72 71 70 69 69 69 71 71 67 63 64 68 69 76 76 75 74 73 73
67 69 71 73 74 75 75 75 75 75 75 76 76 76 76 75 74 74 74 75 73 73 73 72 71 70 69 68 68 69 69 68 61 60 61 63 67 75 76 75 74 73 74
67 68 70 69 71 73 74 74 74 74 75 75 75 75 75 74 74 73 74 74 74 73 72 71 70 69 68 67 67 68 67 66 61 59 59 61 70 73 73 73 72 72 72
66 67 68 70 70 69 70 71 72 73 73 74 74 74 73 72 72 72 72 73 73 72 72 70 69 68 67 67 66 66 65 64 56 57 62 59 70 72 72 72 72 72 72
65 66 67 68 69 70 70 68 69 70 71 71 71 70 69 69 69 69 68 70 72 71 71 69 68 67 66 65 65 64 63 62 55 56 56 59 70 71 71 71 71 71 71
64 63 65 67 68 68 68 68 67 68 68 68 67 66 65 65 65 65 64 68 70 70 70 69 68 67 64 63 63 63 60 53 53 53 54 64 68 70 70 70 70 70 71
61 62 62 64 66 67 69 67 68 69 70 69 67 66 67 65 62 63 61 65 67 67 69 68 67 64 58 50 50 57 51 52 51 51 52 63 68 70 70 70 70 70 70
60 61 62 64 65 66 67 67 66 68 67 66 65 64 65 64 62 59 58 59 58 60 58 61 58 52 50 49 50 50 51 50 48 50 55 61 65 69 70 70 70 70 69
59 61 62 62 63 64 65 65 66 68 68 67 63 63 64 62 61 59 57 56 55 54 53 52 50 49 49 50 51 51 50 49 47 48 51 59 62 67 70 70 70 70 70
55 57 60 60 63 64 63 63 65 67 68 67 65 63 65 63 62 60 58 56 53 52 51 49 48 48 47 49 49 50 49 49 49 48 48 57 61 65 70 70 70 70 70
55 55 56 60 62 62 63 62 64 65 66 64 64 63 64 65 62 60 58 54 52 51 50 49 48 46 46 47 48 49 49 48 49 48 48 50 60 63 68 70 70 70 71
52 53 54 57 59 60 63 61 61 62 61 62 61 61 62 62 63 60 57 55 53 51 50 48 46 45 44 46 46 47 47 48 48 48 48 49 50 58 63 69 70 71 70
50 51 53 56 55 58 59 59 60 60 59 60 60 60 60 60 61 59 57 57 56 53 49 47 45 44 43 43 43 43 44 46 47 48 48 48 48 50 55 61 67 69 69
48 49 51 53 52 55 58 58 58 59 58 58 59 61 61 61 60 59 57 57 55 53 47 48 44 44 42 41 43 42 42 43 44 48 46 47 47 47 47 57 57 59 65
47 48 49 51 51 52 53 54 54 55 56 56 58 60 60 59 58 57 55 54 53 51 45 45 45 42 42 42 47 44 40 41 41 42 44 47 45 46 46 47 46 49 58
46 46 47 48 48 50 48 48 50 50 51 55 58 59 59 59 57 56 54 53 51 51 51 47 44 43 41 40 40 39 39 40 40 41 41 42 43 45 44 44 44 45 48
43 45 46 46 46 47 48 46 47 47 48 48 53 55 55 57 56 55 54 53 51 48 48 47 47 41 41 40 39 36 37 39 39 41 40 41 41 42 43 44 43 44 44
41 41 44 45 45 45 46 48 48 47 47 47 47 49 51 52 53 54 53 51 50 49 47 47 46 46 43 39 40 41 33 35 34 36 38 38 40 38 40 41 42 43 43
39 41 43 44 44 45 44 43 41 41 40 40 41 43 45 46 47 49 50 51 49 48 47 46 47 46 45 42 38 42 37 37 36 36 36 36 38 40 38 38 40 41 42
39 38 40 42 42 42 42 42 41 39 39 40 40 40 40 41 42 43 43 45 47 47 46 45 45 43 44 45 41 38 35 36 35 35 35 34 35 37 39 40 39 39 40
37 37 38 40 39 40 40 40 39 37 38 37 37 37 38 39 40 40 41 40 41 41 42 44 44 43 43 44 43 42 42 38 36 35 32 33 33 35 37 37 38 40 38

GFSSE_sfc_temp_033.txt.gz
Temp
66 69 75 77 78 78 78 77 77 76 77 77 77 77 77 77 77 77 77 77 77 78 79 78 77 75 74 74 74 74 74 75 74 76 76 77 78 77 76 75 74 74 76
68 70 74 76 78 78 77 77 76 76 77 77 77 77 77 77 77 77 76 76 77 77 76 76 75 74 73 73 73 73 74 74 73 73 73 75 76 77 76 75 75 75 76
68 72 73 75 77 77 76 76 76 76 77 77 77 77 77 77 77 77 76 75 76 76 76 76 74 73 72 72 73 73 73 73 73 72 73 69 70 76 76 75 75 76 76
69 72 73 73 76 76 76 75 75 76 77 77 77 77 77 76 77 77 76 75 75 75 75 74 73 72 72 72 72 72 73 73 72 70 68 70 73 76 76 76 75 75 75
68 71 72 72 75 76 75 75 75 76 76 77 77 77 77 77 76 76 75 75 74 74 74 74 72 71 71 70 70 71 72 71 69 68 66 67 69 75 76 75 74 73 73
67 69 71 73 75 75 75 75 75 75 76 76 76 77 77 77 75 75 74 75 75 73 73 73 72 70 70 69 69 70 72 70 66 62 64 67 68 76 76 75 74 73 72
66 68 69 72 74 75 75 75 75 75 75 76 76 76 76 75 74 74 74 74 75 75 73 72 71 69 68 68 68 69 70 67 60 60 61 63 67 74 76 76 74 74 74
66 67 69 69 71 73 74 74 74 75 75 75 75 75 75 75 74 74 74 74 74 74 72 71 70 68 67 67 68 68 67 65 60 58 59 60 70 73 73 72 73 72 72
65 66 67 69 69 68 71 73 72 73 73 74 74 74 73 72 72 72 72 73 74 73 72 70 69 68 67 67 67 66 65 63 55 56 60 58 69 72 72 71 71 71 71
62 65 66 67 69 69 69 67 68 70 71 71 71 69 68 69 69 69 68 70 72 72 71 69 68 67 66 66 65 64 63 61 54 55 56 58 70 71 71 70 71 71 71
62 62 64 65 68 71 71 68 66 67 68 68 67 65 64 65 65 65 64 68 71 70 70 69 68 67 65 63 64 62 59 52 52 52 53 64 68 70 70 70 70 70 70
59 60 61 64 66 68 70 70 68 69 69 69 68 66 65 66 65 63 61 65 67 67 69 69 68 65 57 49 49 56 50 50 50 50 51 64 67 70 70 70 70 70 70
58 59 61 62 64 66 69 69 68 66 66 67 67 66 65 64 62 62 61 60 59 60 58 61 58 51 50 48 49 49 49 49 47 49 54 62 64 69 70 70 70 70 69
52 55 56 59 61 63 65 68 69 68 65 65 64 64 63 62 61 60 59 59 57 55 54 53 51 50 48 49 49 49 49 47 46 47 49 59 62 66 70 70 70 70 70
50 51 52 53 59 62 62 62 66 68 68 66 65 63 61 61 61 60 59 58 57 56 52 51 49 48 47 47 48 48 48 48 48 47 47 55 60 64 69 70 70 70 70
50 50 52 53 55 60 61 60 63 67 68 66 65 64 61 60 59 60 58 57 56 55 51 50 49 47 45 45 47 47 47 47 47 47 47 49 58 62 66 70 70 70 70
47 49 50 53 54 58 59 59 60 64 65 63 64 62 61 61 61 61 58 56 57 55 51 49 47 46 44 45 44 45 46 46 46 47 47 47 49 56 62 68 70 70 71
46 47 50 52 51 55 58 58 59 59 59 60 60 61 61 61 61 59 57 56 56 54 53 51 49 44 44 43 42 43 43 44 45 46 46 47 47 49 53 61 65 69 70
45 46 47 49 49 51 54 56 57 57 58 59 60 61 61 61 61 59 57 56 55 54 52 51 47 48 43 41 42 41 41 41 42 46 45 46 46 47 47 53 57 58 65
44 46 46 48 48 50 51 55 54 53 54 57 57 57 59 59 58 57 56 55 54 52 50 48 48 46 42 42 46 44 40 40 40 40 41 45 44 45 45 46 46 49 57
43 44 44 44 45 47 46 45 48 48 48 50 53 53 54 56 56 55 55 54 52 52 51 49 46 47 45 44 41 40 40 40 40 39 40 40 42 44 43 44 44 44 47
40 42 43 43 43 44 45 44 45 44 45 46 49 50 50 51 52 53 52 51 50 49 48 47 47 45 45 44 44 39 38 40 39 40 39 40 40 41 42 43 43 43 44
38 38 41 42 43 43 44 45 45 45 43 43 43 44 44 46 46 48 49 50 49 48 47 46 46 46 44 43 44 45 40 35 34 37 37 37 38 38 38 40 41 42 42
36 37 40 41 41 42 42 42 40 39 37 37 38 39 41 41 41 42 43 44 47 47 46 45 47 46 45 44 42 44 40 41 38 37 36 36 36 39 37 38 39 40 41
36 34 36 39 39 39 40 40 39 37 37 37 38 38 38 39 40 39 39 40 40 40 40 42 43 43 44 44 42 42 40 39 39 38 39 35 35 36 37 39 40 38 40
35 35 35 37 37 37 38 37 36 35 35 35 35 34 35 36 37 37 38 37 38 37 37 37 38 39 41 42 42 42 41 41 39 38 36 38 36 37 36 35 36 40 40

GFSSE_sfc_temp_036.txt.gz
Temp
65 68 75 77 78 78 78 77 77 76 77 77 77 77 77 77 77 76 77 77 77 78 78 77 76 75 75 74 75 76 75 75 75 75 76 77 77 77 76 75 74 74 77
67 69 73 77 78 78 77 77 76 76 77 77 77 77 77 77 77 77 76 76 77 78 77 77 75 74 74 74 74 75 75 74 74 73 73 75 76 77 76 75 75 75 77
67 70 72 75 77 77 76 76 76 76 77 77 77 77 77 77 77 76 76 75 76 76 76 76 74 73 73 73 73 74 74 74 73 72 72 68 70 76 76 75 75 76 77
68 70 71 73 76 76 76 75 75 76 77 77 77 77 77 77 77 76 76 75 75 75 75 74 73 72 72 72 72 73 73 73 71 70 68 69 72 76 76 76 75 75 74
67 69 71 72 75 76 75 75 75 76 76 77 77 77 77 76 76 76 75 74 74 74 74 74 72 72 71 71 71 72 73 71 69 67 66 67 68 75 76 75 74 73 73
66 69 70 73 75 75 75 75 75 75 76 76 76 77 77 77 76 75 74 74 74 73 73 73 71 71 70 70 70 71 71 69 66 62 63 66 67 76 76 75 74 73 72
64 67 69 72 74 75 75 75 75 75 75 76 76 76 76 76 75 74 74 74 74 74 73 72 71 69 69 69 69 70 69 67 60 60 61 63 66 74 75 75 75 75 75
65 66 68 68 70 73 74 74 74 74 75 75 75 75 75 74 74 74 74 74 74 74 73 72 70 68 68 68 68 68 67 65 60 58 58 60 69 73 73 73 73 72 72
62 65 66 68 68 68 70 71 72 73 73 73 73 74 73 73 73 73 72 73 74 74 72 71 69 68 67 67 67 66 64 63 55 56 60 58 68 72 72 71 71 71 71
61 63 64 65 69 68 68 67 70 70 71 71 70 69 68 69 69 70 68 71 73 72 71 70 68 67 66 66 65 64 62 61 53 54 55 57 69 71 71 71 71 71 71
61 60 63 64 69 71 70 67 65 67 67 68 67 66 63 66 66 65 64 68 71 70 70 69 68 67 64 61 63 62 59 51 51 51 52 63 68 71 71 70 70 70 70
54 58 59 62 66 68 70 69 68 67 69 69 68 67 65 65 65 65 62 65 67 67 69 69 67 63 55 48 47 53 49 50 49 50 51 63 67 70 71 70 70 70 70
49 52 53 55 62 67 68 68 67 68 66 67 68 67 66 64 62 63 62 62 62 60 58 60 55 51 50 47 47 47 48 47 46 48 52 61 64 68 70 70 70 70 70
48 50 51 51 52 63 68 67 67 67 65 63 65 66 64 63 62 61 60 60 60 58 58 55 51 50 48 48 48 47 47 46 45 46 48 56 62 65 69 71 70 70 70
47 48 49 50 50 56 65 66 66 66 66 65 65 64 63 62 61 61 60 59 58 57 57 55 52 49 48 47 47 47 47 46 46 46 45 53 59 63 66 71 71 71 70
46 46 48 50 51 52 59 62 64 65 67 65 65 64 62 62 61 60 59 58 57 57 56 52 50 49 47 46 46 46 46 46 45 46 46 46 56 59 63 68 71 71 71
44 46 47 50 51 55 57 59 62 64 64 64 64 64 63 62 61 60 58 57 58 56 55 53 51 50 48 45 45 44 44 45 45 45 46 46 48 54 58 64 68 70 71
43 44 47 50 49 54 56 57 59 60 60 60 61 61 61 61 62 60 58 57 57 55 54 52 51 50 49 48 44 43 42 42 43 44 44 45 46 48 51 57 61 64 69
42 43 45 47 47 51 55 56 55 55 55 54 54 55 58 58 59 59 58 58 57 54 52 52 49 50 48 47 46 43 41 41 41 44 43 44 44 46 46 52 55 56 61
41 43 44 46 45 48 52 53 53 51 51 52 50 51 52 53 55 56 55 54 54 53 51 49 48 45 46 47 47 47 42 41 40 40 41 43 43 44 44 45 45 47 55
41 42 42 43 43 46 44 43 46 45 46 47 48 48 49 49 51 51 51 51 52 50 49 48 46 46 45 45 46 45 45 44 41 40 39 39 41 42 42 43 43 43 45
37 39 41 42 42 43 43 42 42 41 42 43 45 45 45 45 46 48 48 49 49 49 48 47 46 45 45 45 45 42 41 41 41 39 38 39 39 39 40 42 41 42 42
35 35 39 39 40 41 42 43 42 42 40 40 39 40 40 41 41 42 43 44 46 46 45 45 45 45 43 44 45 45 41 39 38 39 38 37 37 38 39 39 41 41 41
34 34 36 38 38 40 41 41 39 38 36 35 36 37 38 38 39 39 40 40 39 40 39 41 44 44 44 42 43 44 41 42 39 38 38 39 37 38 37 37 38 39 40
34 33 34 36 37 38 38 38 37 35 35 34 34 35 35 36 37 37 37 37 37 37 36 36 37 37 38 39 41 41 40 40 40 38 38 39 39 39 37 37 38 37 39
33 33 33 35 34 35 36 35 35 34 33 34 32 32 32 33 34 34 35 34 35 35 34 34 35 35 35 36 36 37 39 39 39 39 37 40 37 38 37 37 36 37 37

GFSSE_sfc_temp_042.txt.gz
Temp
81 84 75 78 78 78 78 77 77 77 77 78 78 78 77 77 77 77 77 77 78 77 77 76 76 75 76 76 77 76 75 75 75 76 76 77 77 77 77 76 76 81 77
84 84 74 77 78 78 77 77 77 77 77 78 78 77 77 77 77 77 76 76 77 77 76 76 75 75 74 74 75 75 75 74 74 74 75 76 76 77 76 75 75 79 76
83 83 81 76 77 77 76 76 76 77 77 78 78 77 78 77 77 76 76 76 76 76 76 75 74 74 73 73 74 74 74 73 73 73 74 84 82 76 76 75 75 75 76
83 83 84 74 76 76 76 76 76 77 77 77 77 77 77 77 77 76 76 75 75 75 75 74 74 73 72 72 73 74 73 72 71 73 83 84 82 76 76 75 75 75 76
82 83 83 73 76 77 76 76 76 76 77 77 77 77 77 77 76 75 75 75 75 75 74 73 73 72 71 72 72 73 72 71 71 77 82 82 83 78 76 76 76 74 73
81 83 77 73 76 76 76 76 76 76 76 77 77 77 77 77 76 75 74 74 74 74 73 72 71 71 70 71 71 72 71 70 72 80 81 78 81 76 76 75 74 73 73
80 82 81 73 74 75 75 75 75 76 76 76 76 76 76 76 75 75 74 74 74 74 73 71 70 70 70 70 70 70 68 67 77 78 78 78 77 74 74 74 74 74 73
79 78 80 71 71 73 74 74 74 75 75 75 75 76 75 74 74 74 74 74 74 73 72 71 70 69 69 69 68 67 66 65 75 76 75 77 70 73 73 73 73 72 72
78 77 78 80 75 67 70 71 73 74 74 74 74 74 73 73 73 73 73 74 74 73 71 70 69 68 68 67 66 65 63 63 77 75 75 77 69 73 73 72 72 72 71
73 75 75 77 74 75 80 68 69 70 71 72 71 70 68 68 70 70 69 71 73 72 70 69 68 67 65 64 64 62 62 64 74 74 75 72 68 72 72 72 71 71 71
71 70 71 71 71 74 75 76 67 67 69 69 69 67 68 78 76 74 67 69 71 70 70 69 67 64 63 61 61 61 63 73 73 73 74 64 67 71 72 71 71 71 71
67 68 68 69 69 67 72 74 74 73 75 80 79 78 79 80 77 74 66 65 67 67 69 68 65 62 65 71 72 66 72 70 72 71 72 62 66 69 71 71 71 71 71
65 67 67 67 68 69 70 72 72 72 78 78 79 75 73 71 71 69 68 68 68 63 68 67 67 73 68 70 70 70 69 70 71 71 67 59 63 67 69 70 71 71 70
62 64 65 65 66 68 73 72 72 72 72 76 77 77 74 70 68 67 66 68 65 66 65 64 64 69 68 67 67 67 67 68 70 70 68 56 60 64 67 69 71 71 71
60 61 62 64 65 67 69 72 71 71 72 72 71 68 67 69 71 71 67 67 66 65 66 71 66 64 68 67 67 66 66 66 66 68 68 57 58 62 65 67 69 71 72
58 59 61 60 62 67 72 69 68 67 65 64 64 65 65 65 64 64 65 64 63 63 64 63 63 60 60 60 65 64 65 66 65 65 67 67 58 59 61 64 66 68 71
58 58 54 56 61 64 61 59 59 60 60 58 59 60 61 63 63 62 61 60 59 60 61 59 57 59 60 60 59 57 59 64 65 65 66 66 66 60 58 61 63 64 65
57 53 53 56 56 56 55 55 55 55 55 55 55 58 59 60 61 60 58 57 57 55 55 55 54 55 55 54 54 54 56 63 63 64 65 65 65 65 63 61 59 61 62
56 53 52 54 55 55 55 55 55 56 57 59 60 57 57 59 58 57 56 54 55 55 54 53 52 55 54 55 52 55 57 55 57 64 64 63 63 62 63 61 57 56 58
56 55 54 53 54 55 55 55 57 56 57 58 57 57 58 58 61 60 58 55 57 57 55 56 55 52 51 52 52 54 56 55 55 60 63 63 62 61 61 61 61 62 57
55 56 56 55 56 59 61 60 57 55 54 54 54 54 55 56 56 57 56 57 58 56 56 57 56 56 56 57 58 61 61 62 61 62 63 63 61 60 60 61 60 61 62
52 53 54 55 56 57 58 56 56 54 53 53 52 51 52 52 53 53 54 53 54 55 53 54 54 56 57 57 55 56 56 61 61 62 62 60 60 60 60 60 59 59 59
50 51 52 53 54 56 56 55 54 55 55 53 51 49 49 50 50 51 51 51 51 52 50 50 52 52 52 54 54 52 51 50 51 60 59 59 59 59 59 60 59 59 59
48 50 51 52 52 53 55 55 55 53 49 49 48 48 47 48 48 49 49 49 49 49 48 48 49 50 51 48 53 53 52 49 45 46 56 57 57 56 57 58 58 58 59
48 49 50 50 50 51 52 52 51 48 48 50 48 46 46 46 46 47 47 47 47 47 46 46 46 46 48 47 47 47 49 51 51 46 44 49 53 54 55 56 56 56 57
46 47 48 48 47 49 50 50 50 48 47 46 46 45 45 46 46 45 45 46 46 45 44 45 45 44 45 46 46 46 45 44 45 44 43 45 45 50 51 52 53 55 56

GFSSE_sfc_temp_045.txt.gz
Temp
84 84 76 78 78 78 78 77 77 77 77 78 78 78 77 77 77 77 77 77 77 77 77 76 76 76 76 76 76 75 75 75 75 76 76 77 77 77 76 75 76 79 77
88 86 75 77 78 78 77 77 77 77 77 78 78 78 77 77 77 76 76 76 76 76 76 75 75 75 74 74 75 75 75 74 74 74 75 76 76 76 76 75 75 77 76
87 86 81 76 77 76 76 76 76 77 78 78 78 77 77 77 77 76 76 76 76 76 75 75 74 74 73 74 74 74 74 74 73 74 75 83 79 76 76 75 75 76 76
87 87 85 74 76 76 76 76 76 77 77 77 77 77 77 77 76 76 75 75 75 75 75 74 73 73 73 73 74 73 73 72 73 74 83 84 82 76 76 75 75 75 75
86 87 83 74 76 76 76 76 76 76 77 77 77 77 77 77 76 75 75 75 75 74 74 73 72 72 72 72 72 72 72 72 72 76 82 80 79 77 76 75 76 74 73
85 87 75 74 76 77 76 76 76 76 76 77 77 77 77 76 75 75 74 74 74 73 73 72 71 71 71 71 71 71 70 71 70 82 82 80 77 75 75 74 74 73 72
85 86 82 74 75 76 76 75 75 75 76 76 76 76 76 76 74 74 74 74 74 73 72 71 70 70 70 70 70 69 68 68 77 79 78 78 74 74 74 74 73 73 73
83 83 83 72 70 73 75 75 75 75 75 75 75 76 75 75 74 74 74 74 74 73 71 70 69 69 69 68 67 67 66 66 77 77 76 76 70 74 74 73 73 72 72
82 81 82 83 77 67 69 72 73 74 74 74 75 75 74 74 73 73 73 73 73 72 70 69 68 68 67 67 66 65 64 65 77 75 77 72 68 73 73 73 72 72 72
77 78 77 76 76 77 80 68 68 71 72 73 72 71 69 70 70 70 69 71 72 71 70 69 67 67 66 65 64 64 64 65 75 75 74 67 68 72 73 72 72 72 72
76 75 75 74 74 74 76 73 67 66 69 69 70 67 67 78 75 73 68 70 71 70 70 68 67 65 65 64 64 63 65 72 73 72 72 64 67 70 72 72 71 71 71
72 73 73 73 73 73 74 77 79 78 77 80 79 77 78 80 77 75 67 65 67 68 69 68 66 65 67 72 71 67 71 70 72 71 68 63 66 69 70 71 72 71 71
70 72 71 71 71 73 73 73 75 76 75 80 79 78 77 76 76 74 72 68 69 64 71 69 69 73 70 70 70 70 70 70 71 70 64 61 64 67 69 70 71 71 71
68 68 69 70 70 72 74 71 72 74 77 74 76 76 76 74 72 69 68 68 70 68 70 69 69 69 70 69 68 68 68 68 69 69 64 58 61 65 67 69 70 71 72
64 66 67 68 69 71 72 71 71 69 71 70 70 70 73 71 70 69 67 65 66 68 66 68 68 65 65 67 68 67 67 67 67 68 67 58 60 62 65 67 68 70 71
63 63 62 61 67 71 74 66 64 65 65 65 65 66 68 67 65 64 63 61 60 61 62 62 62 63 62 61 65 65 65 66 67 67 67 67 61 61 62 65 66 67 68
63 58 56 58 62 61 58 58 58 60 60 58 60 62 63 65 65 63 63 62 61 60 58 60 59 58 61 61 63 64 63 64 65 66 66 67 66 61 61 62 63 64 65
59 55 55 57 57 55 54 55 56 58 59 59 59 60 61 62 62 59 57 56 56 56 55 54 53 55 54 56 59 61 60 60 64 65 66 66 65 65 63 62 60 61 63
56 55 54 55 54 54 53 55 56 57 58 59 61 62 62 63 63 60 58 58 57 55 56 56 56 54 56 58 57 58 59 58 58 60 63 64 63 62 62 62 59 58 60
56 55 54 55 54 55 56 56 56 56 57 60 59 59 60 60 61 61 61 60 61 59 59 59 58 58 57 59 59 59 61 62 60 60 62 64 62 61 61 60 59 60 60
57 56 56 56 57 59 59 59 59 56 56 56 56 56 56 58 58 58 57 58 59 56 56 57 58 58 57 57 59 59 62 63 61 62 62 62 60 60 61 59 58 57 59
58 58 58 59 61 63 62 60 59 57 55 54 54 53 54 54 55 55 55 54 55 54 53 53 54 55 55 56 52 54 54 57 57 61 60 60 59 59 59 59 59 58 57
56 57 58 59 60 59 59 58 57 57 56 54 52 50 51 52 52 53 53 52 52 52 50 50 51 50 50 53 52 50 47 46 49 57 57 58 57 56 57 57 57 57 57
54 55 57 57 58 59 61 59 58 56 51 51 49 49 48 50 50 51 51 50 50 49 48 48 49 49 49 46 51 52 51 49 44 44 52 53 53 54 53 54 53 54 56
53 53 54 54 55 55 56 56 54 51 51 51 49 47 47 47 48 49 49 48 48 48 46 46 46 46 47 46 46 46 47 48 50 44 41 44 49 51 53 52 51 52 54
50 51 52 52 52 53 54 54 52 50 48 48 48 46 46 47 47 47 48 47 47 45 45 45 45 44 44 45 45 45 44 42 42 42 40 41 41 45 48 49 51 51 51

GFSSE_sfc_temp_048.txt.gz
Temp
76 75 76 78 78 78 77 77 77 77 77 78 78 77 77 77 77 76 77 77 77 77 76 76 76 76 76 76 75 75 75 75 75 76 77 77 77 77 76 75 75 76 77
78 78 75 77 78 77 77 76 76 77 77 78 78 77 77 77 77 76 76 76 76 76 76 75 75 75 75 75 75 75 75 74 74 74 75 76 76 77 76 75 75 76 76
80 78 77 76 77 76 76 76 76 77 77 78 78 77 77 77 76 76 76 75 76 76 75 75 74 74 74 74 74 74 74 74 74 74 74 74 73 77 76 75 75 76 75
81 79 78 74 76 76 75 76 76 76 77 77 77 77 77 77 76 76 75 75 75 75 74 74 73 73 73 73 73 73 73 73 72 72 75 77 76 77 77 76 75 74 74
80 81 77 74 76 75 76 76 76 76 76 77 77 77 77 76 76 75 75 74 74 74 73 73 73 72 72 72 72 72 72 72 72 72 73 72 71 76 76 75 74 73 72
80 78 73 75 76 76 75 75 76 75 76 76 76 77 76 76 75 74 74 74 73 73 72 72 72 71 71 71 71 70 71 71 73 72 74 71 70 75 75 74 74 73 72
77 76 75 74 75 76 76 75 75 75 76 76 76 76 75 75 74 74 74 74 73 72 72 71 71 70 70 69 69 69 69 69 68 68 68 66 67 74 74 74 73 73 73
76 77 75 70 70 72 75 75 75 75 74 75 75 75 75 74 74 74 74 73 72 72 71 70 70 69 69 69 68 68 68 67 69 67 65 64 70 74 74 73 72 72 72
75 76 76 74 70 68 69 72 73 74 74 74 74 74 73 73 73 73 72 73 72 71 71 70 69 68 68 68 68 67 66 66 64 64 67 61 69 73 73 72 72 72 72
69 70 70 71 72 73 71 68 69 71 72 72 72 70 69 69 69 69 69 71 72 71 70 69 68 68 68 67 67 66 65 66 63 62 60 60 69 72 73 72 72 72 72
67 66 66 67 71 71 73 70 66 67 69 69 68 66 64 69 68 67 67 69 70 70 70 69 68 67 66 65 66 65 64 60 61 59 57 65 69 71 72 72 72 71 71
61 62 63 63 65 67 72 73 71 70 69 70 70 68 69 69 69 68 64 66 67 67 68 68 67 66 65 60 59 62 58 59 59 58 56 64 68 70 71 71 71 71 71
58 61 62 62 63 64 67 70 68 69 69 70 71 70 68 67 66 65 63 64 64 63 65 63 63 63 61 59 59 59 58 57 55 56 58 63 66 68 70 70 70 71 71
58 59 60 61 62 63 63 69 70 70 67 66 68 68 67 65 65 64 63 64 65 64 64 63 60 60 61 61 60 60 59 57 56 56 54 60 63 66 68 69 70 70 72
56 57 56 57 59 63 64 68 66 66 66 66 65 66 66 65 64 64 64 63 62 63 62 62 60 60 57 58 60 59 59 58 58 57 55 58 61 64 66 68 69 69 69
56 53 54 59 59 61 60 62 61 61 61 62 61 62 64 64 62 61 61 60 59 59 59 58 58 58 57 58 58 58 57 57 58 58 57 55 61 63 64 66 67 67 68
53 55 56 58 58 56 57 57 57 58 59 58 59 59 60 59 58 57 57 56 56 57 57 56 56 55 55 57 57 56 55 55 56 58 57 57 57 61 63 64 64 64 66
51 52 55 56 55 54 55 56 57 58 58 58 59 57 57 57 56 55 54 54 55 55 55 54 54 54 54 53 51 51 51 53 54 55 56 56 55 55 57 62 62 63 63
53 54 53 54 53 53 55 56 56 57 57 57 57 55 55 57 57 54 53 52 53 52 52 52 50 50 48 49 50 50 50 50 51 54 55 55 54 53 52 58 58 58 61
54 54 53 53 53 54 54 55 55 55 54 54 51 52 53 54 55 52 52 52 51 50 49 49 50 49 47 47 52 52 50 50 51 50 52 54 52 53 52 52 50 51 58
54 54 53 53 53 55 54 54 53 50 48 48 49 50 50 51 51 50 49 50 49 47 46 49 47 47 46 48 46 47 49 51 50 50 50 50 51 52 51 51 49 49 51
54 54 54 55 56 57 56 54 49 47 47 46 46 47 47 47 48 49 46 45 45 44 44 44 44 44 43 46 41 42 41 46 48 50 49 50 48 48 49 52 49 51 49
53 54 55 56 53 51 51 51 50 48 45 43 42 42 44 45 45 45 44 43 43 42 41 40 40 40 38 40 43 40 36 35 38 44 44 45 45 43 44 45 48 49 48
49 50 52 51 50 51 51 48 47 45 42 40 40 40 41 42 43 43 43 42 40 39 38 39 40 38 38 36 38 43 39 37 35 33 39 40 44 43 43 41 45 46 46
46 46 46 48 48 48 48 47 45 43 42 42 40 39 39 39 40 41 40 39 39 38 36 37 36 35 36 35 35 35 36 36 36 32 29 35 38 39 40 42 42 41 45
44 44 43 44 45 46 46 45 43 42 41 40 38 37 37 37 38 39 40 38 37 36 36 35 35 35 34 34 34 35 34 33 32 31 28 31 30 34 39 38 40 41 42